Вернуться в каталог

FENGYUN 1C DEB

АктивенSSO
NORAD 30294·DEBRIS·🇨🇳 China

Запущен May 10, 1999 с Taiyuan Satellite Launch Center

Loading…

Ближайшие Пролёты (ближайшие 24 часа)

TLE

СвежийSource: Space-Track

Эпоха: Sep 13, 2026, 11:20 UTC

1 30294U 99025ZF  26256.47224351  .00000357  00000-0  11378-3 0  9990
2 30294  98.3791 241.6155 0195910 209.0351 305.7359 14.35473828 24762

Отслеживайте FENGYUN 1C DEB в реальном времени с AllMySat

Download on the App Store